Powrót do katalogu

STARLINK-37154

AktywnyŁącznośćSSO
NORAD 68316·PAYLOAD·🇺🇸 United States

Wystrzelony Mar 20, 2026 z Vandenberg Space Force Base

Loading…

Następne Przeloty (najbliższe 24 godziny)

TLE

ŚwieżeSource: CelesTrak SupGP

Epoka: Sep 15, 2026, 04:07 UTC

1 68316C 26057Y   26258.17201389 -.00010152  00000+0 -31509-3 0  2587
2 68316  97.2850  23.5756 0001138  93.0028 224.2289 15.33451036    11

Śledź STARLINK-37154 w czasie rzeczywistym z AllMySat

Download on the App Store